Total_Precipitation_Accumulation
1.57 1.46 1.07 0.63 0.46 0.41 0.43 0.42 0.37 0.39 0.35 0.40 0.38 0.37 0.36 0.39 0.45 0.45 0.44 0.46 0.57 0.71 0.86 0.96 1.16 1.31 1.40 1.58 1.74 1.81 1.81 1.82 1.84 1.93 1.95 1.85 1.72 1.64 1.57 1.44 1.29 1.22 1.12 1.11
1.47 1.10 0.62 0.43 0.46 0.47 0.47 0.49 0.39 0.39 0.40 0.47 0.47 0.41 0.37 0.42 0.47 0.46 0.44 0.44 0.49 0.63 0.76 0.89 1.05 1.16 1.29 1.45 1.56 1.76 1.81 1.77 1.78 1.78 1.89 1.97 2.04 1.97 1.89 1.79 1.54 1.37 1.27 1.19
1.14 0.72 0.54 0.57 0.62 0.61 0.48 0.43 0.39 0.44 0.47 0.52 0.51 0.50 0.44 0.48 0.43 0.48 0.51 0.51 0.52 0.55 0.69 0.83 1.00 1.10 1.19 1.37 1.47 1.56 1.67 1.71 1.77 1.89 2.15 2.29 2.27 2.08 1.89 1.70 1.57 1.45 1.37 1.34
1.02 0.62 0.65 0.73 0.68 0.59 0.53 0.29 0.33 0.45 0.59 0.66 0.58 0.72 0.58 0.51 0.43 0.46 0.52 0.52 0.55 0.58 0.70 0.82 0.90 1.03 1.15 1.22 1.33 1.44 1.53 1.63 1.70 1.88 2.04 2.12 2.04 1.87 1.71 1.63 1.60 1.58 1.47 1.42
1.05 0.71 0.75 0.82 0.61 0.56 0.50 0.31 0.35 0.50 0.63 0.65 0.48 0.56 0.56 0.41 0.40 0.43 0.45 0.46 0.49 0.56 0.64 0.69 0.76 0.86 0.97 1.05 1.15 1.30 1.37 1.47 1.55 1.71 1.79 1.98 1.98 1.84 1.80 1.75 1.62 1.54 1.48 1.45
0.79 0.70 0.83 0.77 0.53 0.57 0.54 0.54 0.59 0.66 0.89 0.88 0.41 0.44 0.53 0.42 0.41 0.42 0.43 0.45 0.47 0.51 0.57 0.60 0.62 0.70 0.81 0.87 0.94 1.10 1.25 1.29 1.38 1.53 1.61 1.63 1.68 1.64 1.68 1.70 1.61 1.51 1.43 1.38
1.16 0.95 0.81 0.77 0.79 0.81 0.82 1.05 1.34 1.29 1.19 0.73 0.28 0.33 0.44 0.34 0.36 0.41 0.40 0.39 0.39 0.41 0.46 0.49 0.46 0.55 0.68 0.76 0.81 0.92 1.08 1.13 1.19 1.32 1.46 1.52 1.58 1.59 1.57 1.52 1.54 1.51 1.40 1.23
1.19 1.13 0.79 0.81 0.89 0.95 0.84 0.93 1.07 0.92 0.60 0.34 0.23 0.30 0.31 0.23 0.26 0.29 0.30 0.30 0.33 0.37 0.40 0.42 0.42 0.47 0.57 0.65 0.72 0.77 0.89 0.97 1.05 1.11 1.22 1.38 1.44 1.48 1.49 1.44 1.45 1.47 1.40 1.29
0.77 0.86 0.56 0.57 0.59 0.66 0.83 0.81 0.64 0.79 0.54 0.36 0.27 0.26 0.23 0.16 0.18 0.21 0.24 0.25 0.30 0.35 0.36 0.41 0.41 0.45 0.50 0.55 0.61 0.65 0.70 0.82 0.88 0.92 1.02 1.14 1.19 1.21 1.23 1.23 1.25 1.29 1.30 1.22
0.63 0.82 0.58 0.57 0.75 0.71 0.72 0.67 0.79 1.15 0.90 0.52 0.27 0.21 0.25 0.18 0.18 0.19 0.22 0.26 0.30 0.33 0.33 0.37 0.42 0.45 0.46 0.48 0.50 0.53 0.60 0.71 0.79 0.81 0.84 0.90 0.96 1.02 1.02 1.00 1.02 1.06 1.09 1.07
0.57 0.85 0.74 0.75 0.91 0.69 0.66 0.76 0.85 0.87 0.71 0.65 0.38 0.26 0.24 0.22 0.20 0.19 0.21 0.26 0.29 0.30 0.31 0.35 0.39 0.44 0.47 0.51 0.53 0.53 0.55 0.60 0.71 0.72 0.68 0.69 0.75 0.85 0.89 0.89 0.87 0.88 0.93 0.98
0.53 0.83 0.75 0.58 0.50 0.40 0.51 0.54 0.65 0.89 0.64 0.50 0.44 0.29 0.18 0.18 0.21 0.23 0.24 0.27 0.27 0.25 0.27 0.31 0.35 0.41 0.44 0.48 0.54 0.57 0.56 0.58 0.65 0.65 0.64 0.61 0.59 0.66 0.73 0.71 0.71 0.74 0.74 0.78
0.58 0.93 0.93 0.69 0.63 0.58 0.59 0.45 0.47 0.74 0.97 0.71 0.57 0.32 0.15 0.12 0.17 0.22 0.25 0.27 0.24 0.22 0.23 0.25 0.28 0.35 0.40 0.45 0.49 0.51 0.52 0.54 0.59 0.59 0.58 0.61 0.57 0.60 0.65 0.63 0.60 0.62 0.62 0.62
0.81 0.95 0.84 0.73 0.60 0.59 0.57 0.42 0.49 1.01 1.26 0.66 0.36 0.26 0.19 0.16 0.19 0.23 0.27 0.29 0.24 0.23 0.25 0.25 0.27 0.32 0.37 0.40 0.45 0.45 0.47 0.51 0.54 0.53 0.53 0.55 0.56 0.56 0.61 0.60 0.52 0.53 0.54 0.53
0.79 0.97 0.67 0.45 0.37 0.47 0.48 0.44 0.53 0.82 0.76 0.66 0.34 0.26 0.28 0.28 0.27 0.26 0.25 0.25 0.22 0.22 0.25 0.26 0.29 0.31 0.31 0.32 0.35 0.36 0.37 0.40 0.45 0.47 0.48 0.53 0.54 0.53 0.59 0.60 0.55 0.53 0.53 0.51
0.53 0.76 0.65 0.48 0.33 0.40 0.43 0.40 0.45 0.52 0.48 0.47 0.38 0.35 0.25 0.24 0.23 0.24 0.24 0.23 0.24 0.22 0.23 0.24 0.27 0.28 0.27 0.29 0.32 0.32 0.33 0.36 0.41 0.44 0.46 0.48 0.49 0.48 0.52 0.55 0.54 0.55 0.57 0.56
0.35 0.56 0.75 0.59 0.37 0.48 0.58 0.46 0.45 0.43 0.34 0.35 0.39 0.29 0.20 0.22 0.23 0.21 0.18 0.17 0.18 0.17 0.17 0.19 0.21 0.25 0.26 0.24 0.27 0.31 0.35 0.38 0.42 0.46 0.46 0.47 0.47 0.46 0.45 0.46 0.51 0.59 0.64 0.66
0.19 0.40 0.70 0.58 0.47 0.60 0.48 0.34 0.32 0.32 0.27 0.26 0.26 0.18 0.17 0.20 0.22 0.19 0.15 0.12 0.10 0.11 0.11 0.12 0.15 0.19 0.24 0.23 0.24 0.26 0.26 0.29 0.35 0.40 0.40 0.41 0.46 0.50 0.49 0.53 0.61 0.72 0.79 0.84
0.09 0.33 0.64 0.56 0.42 0.28 0.17 0.15 0.17 0.23 0.25 0.18 0.17 0.15 0.13 0.15 0.20 0.20 0.18 0.16 0.11 0.09 0.10 0.09 0.09 0.13 0.17 0.19 0.21 0.22 0.23 0.25 0.28 0.34 0.37 0.38 0.44 0.56 0.66 0.74 0.83 0.89 0.97 1.02
0.10 0.24 0.58 0.52 0.43 0.22 0.11 0.05 0.04 0.12 0.22 0.10 0.10 0.13 0.14 0.15 0.19 0.17 0.14 0.12 0.11 0.10 0.10 0.10 0.08 0.08 0.11 0.13 0.17 0.19 0.22 0.26 0.33 0.40 0.46 0.50 0.57 0.71 0.82 0.87 0.92 0.91 0.91 0.92
0.20 0.34 0.47 0.41 0.39 0.14 0.05 0.03 0.04 0.18 0.23 0.06 0.05 0.09 0.13 0.15 0.15 0.12 0.09 0.09 0.09 0.10 0.12 0.14 0.15 0.16 0.18 0.19 0.24 0.30 0.34 0.41 0.47 0.49 0.57 0.65 0.65 0.67 0.68 0.69 0.69 0.64 0.59 0.56
0.12 0.20 0.21 0.24 0.35 0.18 0.06 0.05 0.09 0.14 0.08 0.05 0.04 0.05 0.09 0.11 0.11 0.11 0.09 0.07 0.07 0.09 0.11 0.14 0.21 0.28 0.32 0.34 0.42 0.48 0.50 0.53 0.53 0.53 0.56 0.58 0.59 0.57 0.53 0.48 0.42 0.35 0.31 0.29
0.08 0.12 0.15 0.18 0.18 0.11 0.06 0.06 0.06 0.06 0.06 0.05 0.04 0.05 0.06 0.09 0.10 0.09 0.10 0.07 0.05 0.05 0.06 0.10 0.15 0.20 0.26 0.30 0.34 0.40 0.40 0.39 0.40 0.40 0.42 0.41 0.39 0.37 0.34 0.31 0.27 0.24 0.22 0.21
0.09 0.07 0.10 0.12 0.09 0.06 0.06 0.05 0.05 0.05 0.05 0.05 0.05 0.06 0.06 0.07 0.07 0.06 0.06 0.06 0.05 0.05 0.04 0.05 0.06 0.07 0.09 0.11 0.16 0.19 0.17 0.17 0.18 0.20 0.23 0.23 0.22 0.20 0.21 0.20 0.20 0.20 0.19 0.19
0.11 0.10 0.13 0.12 0.07 0.06 0.07 0.06 0.05 0.05 0.04 0.04 0.05 0.06 0.07 0.07 0.07 0.06 0.06 0.05 0.05 0.06 0.06 0.06 0.07 0.07 0.08 0.08 0.09 0.09 0.09 0.09 0.10 0.11 0.12 0.14 0.14 0.14 0.15 0.16 0.17 0.19 0.19 0.21
0.05 0.08 0.14 0.14 0.08 0.10 0.09 0.05 0.04 0.03 0.03 0.02 0.03 0.05 0.05 0.05 0.07 0.08 0.07 0.06 0.06 0.06 0.06 0.06 0.07 0.08 0.08 0.08 0.07 0.08 0.08 0.09 0.10 0.11 0.11 0.12 0.13 0.13 0.14 0.15 0.16 0.18 0.19 0.22